Powrót do katalogu

STARLINK-5172

AktywnyŁącznośćVLEO
NORAD 54064·PAYLOAD·🇺🇸 United States

Wystrzelony Oct 20, 2022 z Cape Canaveral Space Force Station

Loading…

Następne Przeloty (najbliższe 24 godziny)

TLE

ŚwieżeSource: CelesTrak SupGP

Epoka: Sep 14, 2026, 21:56 UTC

1 54064C 22136P   26257.91437500 -.00022469  00000+0 -72212-3 0  2572
2 54064  53.1576 156.5178 0000941  91.7803 141.4994 15.31731649    16

Śledź STARLINK-5172 w czasie rzeczywistym z AllMySat

Download on the App Store